ONEWEB-0388 (49314 NORAD) Tracking and Keplerian Element Data

This shows tracking and keplerian element data for the satellite.

Feedback or suggestion? Click here.




ElementValue
Catalog49314
NameONEWEB-0388
Epoch Orbit919
Epoch Day340.25001157
Epoch Year2021
RAAN276.289
Inclination87.5026
Eccentricity0.0010152
Argument of Perigee99.0691
Mean Anonmoly279.6043
Mean Motion14.40159195
Decay Rate-0.00942189
L11 49314U 21090AM 21340.25001157 -.00942189 00000+0 -31776+0 0 9991
L22 49314 87.5026 276.2890 0010152 99.0691 279.6043 14.40159195 9197

Live tracking and technical data element details for ONEWEB-0388 (NORAD 49314). ONEWEB-0388 can be tracked NOW for your location showing map with azimuth and elevation plus other details from your city location.

Track the satellite on the map from your city or location and see movement details for azimuth, elevation, latitude, longitude, range, height, and movement on the map or in text.







IsCatalogInMostPopularTable: catalog: 49314, numindb: 6
Update: records affected: 1



GetName: 49314 ONEWEB-0388

Hit Count: updated at: Mon, 06 Dec 2021 15:42:35 GMT